This is the latest recevied weather packets stored in our database for station/object IU1DOF-3. If no packets are shown the sender has not sent any weather packets the latest 10 day(s).
| Time | Temp. | Humidity | Pressure | Rain* | Wind** | Luminosity | Snow |
|---|---|---|---|---|---|---|---|
| 1777666000 | 8.33° C | 90% | 1024.2 hPa | 0 mm | - | - | - |
| 1777665376 | 8.33° C | 90% | 1023.8 hPa | 0 mm | - | - | - |
| 1777664752 | 8.33° C | 90% | 1023.9 hPa | 0 mm | - | - | - |
| 1777664141 | 8.89° C | 89% | 1023.9 hPa | 0 mm | - | - | - |
| 1777663520 | 8.89° C | 90% | 1023.6 hPa | 0 mm | - | - | - |
| 1777662897 | 8.89° C | 91% | 1023.4 hPa | 0 mm | - | - | - |
| 1777662281 | 9.44° C | 88% | 1023.7 hPa | 0 mm | - | - | - |
| 1777661665 | 9.44° C | 88% | 1023.6 hPa | 0 mm | - | - | - |
| 1777661041 | 10° C | 87% | 1023.4 hPa | 0 mm | - | - | - |
| 1777660421 | 10° C | 86% | 1023.1 hPa | 0 mm | - | - | - |
| 1777659808 | 10.56° C | 85% | 1023 hPa | 0 mm | - | - | - |
| 1777659184 | 11.11° C | 83% | 1023.2 hPa | 0 mm | - | - | - |
| 1777658560 | 11.67° C | 80% | 1023.1 hPa | 0 mm | - | - | - |
| 1777657937 | 12.78° C | 76% | 1023 hPa | 0 mm | - | - | - |
| 1777657312 | 12.78° C | 73% | 1022.9 hPa | 0 mm | - | - | - |
| 1777656702 | 13.33° C | 69% | 1022.9 hPa | 0 mm | - | - | - |
| 1777656081 | 13.89° C | 68% | 1023 hPa | 0 mm | - | - | - |
| 1777655456 | 14.44° C | 65% | 1022.9 hPa | 0 mm | - | - | - |
| 1777654841 | 14.44° C | 65% | 1022.7 hPa | 0 mm | - | - | - |
| 1777654224 | 15° C | 65% | 1022.8 hPa | 0 mm | - | - | - |
| 1777653600 | 15° C | 63% | 1022.8 hPa | 0 mm | - | - | - |
| 1777652981 | 15.56° C | 63% | 1022.9 hPa | 0 mm | - | - | - |
| 1777652368 | 15.56° C | 63% | 1023.2 hPa | 0 mm | - | - | - |
| 1777651744 | 15.56° C | 61% | 1022.9 hPa | 0 mm | - | - | - |
| 1777651120 | 15.56° C | 61% | 1023.2 hPa | 0 mm | - | - | - |
* Rain latest hour (hover to see other rain measurements)
** Current wind speed in m/s (hover to see current wind gust speed)